This demonstration page uses our WeatherBlox Daily Observations layout. Learn more.

Left ArrowRight Arrow

39.12711, -84.51439

Hourly Observations for September 27, 2021

Temp ( °F °C ) Dew Point ( °F °C ) Humidity (%) Winds ( mph kmh ) Pressure ( in mb ) Visibility ( mi km ) Precip ( " mm )
12:53 am 00:53 Clear 55 12.8 53 11.7 93 93 Calm 30.04 1017 10 16 0.00 0.00
1:53 am 01:53 Clear 54 12.2 53 11.7 97 97 Calm 30.04 1017 10 16 0.00 0.00
2:53 am 02:53 Clear 54 12.2 53 11.7 97 97 Calm 30.05 1018 10 16 0.00 0.00
3:53 am 03:53 Clear 53 11.7 53 11.7 100 100 Calm 30.05 1018 8 13 0.00 0.00
4:32 am 04:32 Clear with Mist and Fog 51 10.6 51 10.6 100 100 Calm 30.06 1018 1 2 0.00 0.00
4:36 am 04:36 Clear with Mist and Fog 52 11.1 52 11.1 100 100 Calm 30.06 1018 3 5 0.00 0.00
4:53 am 04:53 Clear with Mist and Fog 51 10.6 51 10.6 100 100 Calm 30.04 1017 4 6 0.00 0.00
4:55 am 04:55 Clear with Mist and Fog 51 10.6 51 10.6 100 100 Calm 30.06 1018 2 2 0.00 0.00
5:07 am 05:07 Clear with Mist and Fog 52 11.1 52 11.1 100 100 Calm 30.06 1018 3 5 0.00 0.00
5:43 am 05:43 Clear with Mist and Fog 51 10.6 51 10.6 100 100 Calm 30.06 1018 2 2 0.00 0.00
5:53 am 05:53 Clear with Mist and Fog 51 10.6 51 10.6 100 100 Calm 30.04 1017 3 4 0.00 0.00
6:00 am 06:00 Clear with Mist and Fog 52 11.1 52 11.1 100 100 Calm 30.06 1018 4 6 0.00 0.00
6:53 am 06:53 Clear 51 10.6 50 10 96 96 Calm 30.05 1018 10 16 0.00 0.00
7:53 am 07:53 Sunny 51 10.6 51 10.6 100 100 Calm 30.05 1018 10 16 0.00 0.00
8:53 am 08:53 Sunny 58 14.4 54 12.2 87 87 Calm 30.04 1017 10 16 0.00 0.00
9:53 am 09:53 Sunny 66 18.9 56 13.3 70 70 S 9 15 30.03 1017 10 16 0.00 0.00
10:53 am 10:53 Sunny 72 22.2 57 13.9 59 59 SW 13 20 30.01 1016 10 16 0.00 0.00
11:53 am 11:53 Sunny 77 25 57 13.9 50 50 SSW 15 24 29.99 1016 10 16 0.00 0.00
12:53 pm 12:53 Sunny 80 26.7 58 14.4 47 47 SSW 17 28 29.97 1015 10 16 0.00 0.00
1:53 pm 13:53 Sunny 83 28.3 58 14.4 43 43 SW 17 28 29.94 1014 10 16 0.00 0.00
2:53 pm 14:53 Sunny 85 29.4 59 15 42 42 SSW 24 39 29.91 1013 10 16 0.00 0.00
3:53 pm 15:53 Sunny 85 29.4 58 14.4 40 40 SW 20 31 29.90 1013 10 16 0.00 0.00
4:53 pm 16:53 Sunny 83 28.3 59 15 44 44 SW 20 31 29.89 1012 10 16 0.00 0.00
5:53 pm 17:53 Sunny 79 26.1 62 16.7 56 56 S 14 22 29.89 1012 10 16 0.00 0.00
6:53 pm 18:53 Sunny 78 25.6 61 16.1 56 56 SSW 15 24 29.89 1012 10 16 0.00 0.00
7:53 pm 19:53 Clear 71 21.7 61 16.1 71 71 S 8 13 29.91 1013 10 16 0.00 0.00
8:53 pm 20:53 Clear 71 21.7 62 16.7 73 73 SSW 7 11 29.92 1013 10 16 0.00 0.00
9:53 pm 21:53 Clear 70 21.1 62 16.7 76 76 SSW 9 15 29.92 1013 10 16 0.00 0.00
10:53 pm 22:53 Clear 70 21.1 63 17.2 79 79 SSW 9 15 29.92 1013 10 16 0.00 0.00
11:53 pm 23:53 Clear 69 20.6 62 16.7 78 78 SW 8 13 29.94 1014 10 16 0.00 0.00

Powered by AerisWeather